Year,Month,Day,Hour,Minute,Value (Times are PST for windgust in km/hr)
2017,05,22,00,00,11.30
2017,05,22,00,01,11.30
2017,05,22,00,02,12.90
2017,05,22,00,03,12.90
2017,05,22,00,04,9.60
2017,05,22,00,05,9.60
2017,05,22,00,06,9.60
2017,05,22,00,07,9.60
2017,05,22,00,08,12.90
2017,05,22,00,09,14.50
2017,05,22,00,10,17.70
2017,05,22,00,11,12.90
2017,05,22,00,12,17.70
2017,05,22,00,13,17.70
2017,05,22,00,14,14.50
2017,05,22,00,15,11.30
2017,05,22,00,16,14.50
2017,05,22,00,17,14.50
2017,05,22,00,18,19.30
2017,05,22,00,19,20.90
2017,05,22,00,20,14.50
2017,05,22,00,21,19.30
2017,05,22,00,22,12.90
2017,05,22,00,23,11.30
2017,05,22,00,24,17.70
2017,05,22,00,25,14.50
2017,05,22,00,26,12.90
2017,05,22,00,27,11.30
2017,05,22,00,28,17.70
2017,05,22,00,29,17.70
2017,05,22,00,30,11.30
2017,05,22,00,31,17.70
2017,05,22,00,32,14.50
2017,05,22,00,33,12.90
2017,05,22,00,34,11.30
2017,05,22,00,35,11.30
2017,05,22,00,36,14.50
2017,05,22,00,37,14.50
2017,05,22,00,38,14.50
2017,05,22,00,39,12.90
2017,05,22,00,40,14.50
2017,05,22,00,41,12.90
2017,05,22,00,42,17.70
2017,05,22,00,43,16.10
2017,05,22,00,44,14.50
2017,05,22,00,45,12.90
2017,05,22,00,46,14.50
2017,05,22,00,47,12.90
2017,05,22,00,48,12.90
2017,05,22,00,49,17.70
2017,05,22,00,50,8.10
2017,05,22,00,51,9.60
2017,05,22,00,52,9.60
2017,05,22,00,53,14.50
2017,05,22,00,54,14.50
2017,05,22,00,55,9.60
2017,05,22,00,56,9.60
2017,05,22,00,57,14.50
2017,05,22,00,58,12.90
2017,05,22,00,59,11.30
2017,05,22,01,00,9.60
2017,05,22,01,01,9.60
2017,05,22,01,02,12.90
2017,05,22,01,03,9.60
2017,05,22,01,04,9.60
2017,05,22,01,05,8.10
2017,05,22,01,06,9.60
2017,05,22,01,07,12.90
2017,05,22,01,08,9.60
2017,05,22,01,09,11.30
2017,05,22,01,10,11.30
2017,05,22,01,11,11.30
2017,05,22,01,12,11.30
2017,05,22,01,13,11.30
2017,05,22,01,14,11.30
2017,05,22,01,15,9.60
2017,05,22,01,16,8.10
2017,05,22,01,17,9.60
2017,05,22,01,18,9.60
2017,05,22,01,19,11.30
2017,05,22,01,20,11.30
2017,05,22,01,21,11.30
2017,05,22,01,22,11.30
2017,05,22,01,23,11.30
2017,05,22,01,24,11.30
2017,05,22,01,25,12.90
2017,05,22,01,26,9.60
2017,05,22,01,27,12.90
2017,05,22,01,28,9.60
2017,05,22,01,29,9.60
2017,05,22,01,30,8.10
2017,05,22,01,31,9.60
2017,05,22,01,32,9.60
2017,05,22,01,33,8.10
2017,05,22,01,34,11.30
2017,05,22,01,35,9.60
2017,05,22,01,36,11.30
2017,05,22,01,37,6.40
2017,05,22,01,38,6.40
2017,05,22,01,39,6.40
2017,05,22,01,40,6.40
2017,05,22,01,41,8.10
2017,05,22,01,42,6.40
2017,05,22,01,43,6.40
2017,05,22,01,44,8.10
2017,05,22,01,45,3.20
2017,05,22,01,46,1.60
2017,05,22,01,47,3.20
2017,05,22,01,52,1.60
2017,05,22,01,54,1.60
2017,05,22,01,57,1.60
2017,05,22,01,58,3.20
2017,05,22,02,02,4.80
2017,05,22,02,03,3.20
2017,05,22,02,04,3.20
2017,05,22,02,05,3.20
2017,05,22,02,06,1.60
2017,05,22,02,12,1.60
2017,05,22,02,25,3.20
2017,05,22,02,26,1.60
2017,05,22,02,27,3.20
2017,05,22,02,28,1.60
2017,05,22,02,29,3.20
2017,05,22,02,30,3.20
2017,05,22,02,31,3.20
2017,05,22,02,32,4.80
2017,05,22,02,33,3.20
2017,05,22,02,34,3.20
2017,05,22,02,35,3.20
2017,05,22,02,36,1.60
2017,05,22,02,37,1.60
2017,05,22,02,40,1.60
2017,05,22,02,47,1.60
2017,05,22,02,48,1.60
2017,05,22,03,17,6.40
2017,05,22,03,18,4.80
2017,05,22,03,19,4.80
2017,05,22,03,20,4.80
2017,05,22,03,21,4.80
2017,05,22,03,22,1.60
2017,05,22,04,05,3.20
2017,05,22,04,06,1.60
2017,05,22,04,07,1.60
2017,05,22,04,08,1.60
2017,05,22,04,09,3.20
2017,05,22,04,10,3.20
2017,05,22,04,11,1.60
2017,05,22,04,14,3.20
2017,05,22,04,15,3.20
2017,05,22,04,24,1.60
2017,05,22,04,30,3.20
2017,05,22,05,23,1.60
2017,05,22,05,24,1.60
2017,05,22,05,27,3.20
2017,05,22,05,28,3.20
2017,05,22,05,30,4.80
2017,05,22,05,31,3.20
2017,05,22,05,32,1.60
2017,05,22,05,33,3.20
2017,05,22,05,34,3.20
2017,05,22,05,35,4.80
2017,05,22,05,36,1.60
2017,05,22,05,37,1.60
2017,05,22,05,49,3.20
2017,05,22,05,50,3.20
2017,05,22,05,51,3.20
2017,05,22,05,52,1.60
2017,05,22,05,53,3.20
2017,05,22,05,54,3.20
2017,05,22,05,55,1.60
2017,05,22,05,56,1.60
2017,05,22,05,57,1.60
2017,05,22,05,59,1.60
2017,05,22,06,00,3.20
2017,05,22,06,01,1.60
2017,05,22,06,02,4.80
2017,05,22,06,03,3.20
2017,05,22,06,05,1.60
2017,05,22,06,06,1.60
2017,05,22,06,08,3.20
2017,05,22,06,09,3.20
2017,05,22,06,10,3.20
2017,05,22,06,11,3.20
2017,05,22,06,12,1.60
2017,05,22,06,13,1.60
2017,05,22,06,14,4.80
2017,05,22,06,15,4.80
2017,05,22,06,17,1.60
2017,05,22,06,18,1.60
2017,05,22,06,19,1.60
2017,05,22,06,20,1.60
2017,05,22,06,50,1.60
2017,05,22,07,00,3.20
2017,05,22,07,01,3.20
2017,05,22,07,12,1.60
2017,05,22,07,13,1.60
2017,05,22,07,18,3.20
2017,05,22,07,19,1.60
2017,05,22,07,33,3.20
2017,05,22,07,34,4.80
2017,05,22,07,36,9.60
2017,05,22,07,37,9.60
2017,05,22,07,38,9.60
2017,05,22,07,39,11.30
2017,05,22,07,40,9.60
2017,05,22,07,41,9.60
2017,05,22,07,42,17.70
2017,05,22,07,43,12.90
2017,05,22,07,44,8.10
2017,05,22,07,45,19.30
2017,05,22,07,46,11.30
2017,05,22,07,47,12.90
2017,05,22,07,48,8.10
2017,05,22,07,49,8.10
2017,05,22,07,50,11.30
2017,05,22,07,51,11.30
2017,05,22,07,52,12.90
2017,05,22,07,53,12.90
2017,05,22,07,54,8.10
2017,05,22,07,56,3.20
2017,05,22,07,57,6.40
2017,05,22,07,58,3.20
2017,05,22,07,59,3.20
2017,05,22,08,00,9.60
2017,05,22,08,01,6.40
2017,05,22,08,02,3.20
2017,05,22,08,03,3.20
2017,05,22,08,04,3.20
2017,05,22,08,05,6.40
2017,05,22,08,06,8.10
2017,05,22,08,07,6.40
2017,05,22,08,08,6.40
2017,05,22,08,09,4.80
2017,05,22,08,10,1.60
2017,05,22,08,11,1.60
2017,05,22,08,12,1.60
2017,05,22,08,13,1.60
2017,05,22,08,14,4.80
2017,05,22,08,15,4.80
2017,05,22,08,16,3.20
2017,05,22,08,17,6.40
2017,05,22,08,18,1.60
2017,05,22,08,19,3.20
2017,05,22,08,20,8.10
2017,05,22,08,21,6.40
2017,05,22,08,22,6.40
2017,05,22,08,23,6.40
2017,05,22,08,24,6.40
2017,05,22,08,25,16.10
2017,05,22,08,26,14.50
2017,05,22,08,27,11.30
2017,05,22,08,28,9.60
2017,05,22,08,29,14.50
2017,05,22,08,30,11.30
2017,05,22,08,31,24.20
2017,05,22,08,32,24.20
2017,05,22,08,33,14.50
2017,05,22,08,34,17.70
2017,05,22,08,35,20.90
2017,05,22,08,36,17.70
2017,05,22,08,37,17.70
2017,05,22,08,38,16.10
2017,05,22,08,39,20.90
2017,05,22,08,40,17.70
2017,05,22,08,41,19.30
2017,05,22,08,42,9.60
2017,05,22,08,43,17.70
2017,05,22,08,44,14.50
2017,05,22,08,45,12.90
2017,05,22,08,46,17.70
2017,05,22,08,47,12.90
2017,05,22,08,48,14.50
2017,05,22,08,49,17.70
2017,05,22,08,50,11.30
2017,05,22,08,51,8.10
2017,05,22,08,52,9.60
2017,05,22,08,53,17.70
2017,05,22,08,54,14.50
2017,05,22,08,55,9.60
2017,05,22,08,56,17.70
2017,05,22,08,57,16.10
2017,05,22,08,58,16.10
2017,05,22,08,59,8.10
2017,05,22,09,00,8.10
2017,05,22,09,01,8.10
2017,05,22,09,02,6.40
2017,05,22,09,03,9.60
2017,05,22,09,04,11.30
2017,05,22,09,05,12.90
2017,05,22,09,06,6.40
2017,05,22,09,07,9.60
2017,05,22,09,08,8.10
2017,05,22,09,09,11.30
2017,05,22,09,10,6.40
2017,05,22,09,11,4.80
2017,05,22,09,12,8.10
2017,05,22,09,13,11.30
2017,05,22,09,14,3.20
2017,05,22,09,15,1.60
2017,05,22,09,16,4.80
2017,05,22,09,17,3.20
2017,05,22,09,18,4.80
2017,05,22,09,20,1.60
2017,05,22,09,21,1.60
2017,05,22,09,22,1.60
2017,05,22,09,23,1.60
2017,05,22,09,24,4.80
2017,05,22,09,25,6.40
2017,05,22,09,26,6.40
2017,05,22,09,27,6.40
2017,05,22,09,28,4.80
2017,05,22,09,29,4.80
2017,05,22,09,30,3.20
2017,05,22,09,31,4.80
2017,05,22,09,32,4.80
2017,05,22,09,33,6.40
2017,05,22,09,34,3.20
2017,05,22,09,35,1.60
2017,05,22,09,36,1.60
2017,05,22,09,37,1.60
2017,05,22,09,38,6.40
2017,05,22,09,39,8.10
2017,05,22,09,40,8.10
2017,05,22,09,41,8.10
2017,05,22,09,42,12.90
2017,05,22,09,43,8.10
2017,05,22,09,44,3.20
2017,05,22,09,45,6.40
2017,05,22,09,46,4.80
2017,05,22,09,47,8.10
2017,05,22,09,48,6.40
2017,05,22,09,49,6.40
2017,05,22,09,50,8.10
2017,05,22,09,51,3.20
2017,05,22,09,52,4.80
2017,05,22,09,53,6.40
2017,05,22,09,54,11.30
2017,05,22,09,55,9.60
2017,05,22,09,56,12.90
2017,05,22,09,57,9.60
2017,05,22,09,58,6.40
2017,05,22,09,59,9.60
2017,05,22,10,00,17.70
2017,05,22,10,01,8.10
2017,05,22,10,02,8.10
2017,05,22,10,03,8.10
2017,05,22,10,04,6.40
2017,05,22,10,05,3.20
2017,05,22,10,06,1.60
2017,05,22,10,07,9.60
2017,05,22,10,08,3.20
2017,05,22,10,09,8.10
2017,05,22,10,10,9.60
2017,05,22,10,11,3.20
2017,05,22,10,12,4.80
2017,05,22,10,13,6.40
2017,05,22,10,14,8.10
2017,05,22,10,15,9.60
2017,05,22,10,16,9.60
2017,05,22,10,17,11.30
2017,05,22,10,18,9.60
2017,05,22,10,19,8.10
2017,05,22,10,20,16.10
2017,05,22,10,21,14.50
2017,05,22,10,22,17.70
2017,05,22,10,23,17.70
2017,05,22,10,24,12.90
2017,05,22,10,25,12.90
2017,05,22,10,26,11.30
2017,05,22,10,27,12.90
2017,05,22,10,28,12.90
2017,05,22,10,29,9.60
2017,05,22,10,30,11.30
2017,05,22,10,31,12.90
2017,05,22,10,32,11.30
2017,05,22,10,33,8.10
2017,05,22,10,34,17.70
2017,05,22,10,35,17.70
2017,05,22,10,36,17.70
2017,05,22,10,37,19.30
2017,05,22,10,38,14.50
2017,05,22,10,39,12.90
2017,05,22,10,40,14.50
2017,05,22,10,41,14.50
2017,05,22,10,42,12.90
2017,05,22,10,43,8.10
2017,05,22,10,44,8.10
2017,05,22,10,45,17.70
2017,05,22,10,46,11.30
2017,05,22,10,47,14.50
2017,05,22,10,48,12.90
2017,05,22,10,49,19.30
2017,05,22,10,50,11.30
2017,05,22,10,51,6.40
2017,05,22,10,52,19.30
2017,05,22,10,53,20.90
2017,05,22,10,54,11.30
2017,05,22,10,55,19.30
2017,05,22,10,56,11.30
2017,05,22,10,57,12.90
2017,05,22,10,58,17.70
2017,05,22,10,59,16.10
2017,05,22,11,00,12.90
2017,05,22,11,01,12.90
2017,05,22,11,02,12.90
2017,05,22,11,03,11.30
2017,05,22,11,04,6.40
2017,05,22,11,05,12.90
2017,05,22,11,06,6.40
2017,05,22,11,07,3.20
2017,05,22,11,08,8.10
2017,05,22,11,09,9.60
2017,05,22,11,10,8.10
2017,05,22,11,11,9.60
2017,05,22,11,12,12.90
2017,05,22,11,13,19.30
2017,05,22,11,14,6.40
2017,05,22,11,15,24.20
2017,05,22,11,16,14.50
2017,05,22,11,17,9.60
2017,05,22,11,18,9.60
2017,05,22,11,19,14.50
2017,05,22,11,20,16.10
2017,05,22,11,21,14.50
2017,05,22,11,22,9.60
2017,05,22,11,23,6.40
2017,05,22,11,24,6.40
2017,05,22,11,25,12.90
2017,05,22,11,26,12.90
2017,05,22,11,27,9.60
2017,05,22,11,28,12.90
2017,05,22,11,29,3.20
2017,05,22,11,30,8.10
2017,05,22,11,31,9.60
2017,05,22,11,32,11.30
2017,05,22,11,33,11.30
2017,05,22,11,34,11.30
2017,05,22,11,35,19.30
2017,05,22,11,36,12.90
2017,05,22,11,37,11.30
2017,05,22,11,38,20.90
2017,05,22,11,39,30.60
2017,05,22,11,40,19.30
2017,05,22,11,41,25.70
2017,05,22,11,42,22.50
2017,05,22,11,43,24.20
2017,05,22,11,44,20.90
2017,05,22,11,45,25.70
2017,05,22,11,46,20.90
2017,05,22,11,47,16.10
2017,05,22,11,48,17.70
2017,05,22,11,49,14.50
2017,05,22,11,50,12.90
2017,05,22,11,51,19.30
2017,05,22,11,52,20.90
2017,05,22,11,53,14.50
2017,05,22,11,54,8.10
2017,05,22,11,55,11.30
2017,05,22,11,56,12.90
2017,05,22,11,57,11.30
2017,05,22,11,58,8.10
2017,05,22,11,59,6.40
2017,05,22,12,00,8.10
2017,05,22,12,01,6.40
2017,05,22,12,02,6.40
2017,05,22,12,03,6.40
2017,05,22,12,04,4.80
2017,05,22,12,05,3.20
2017,05,22,12,06,3.20
2017,05,22,12,07,3.20
2017,05,22,12,08,4.80
2017,05,22,12,09,12.90
2017,05,22,12,10,8.10
2017,05,22,12,11,8.10
2017,05,22,12,12,3.20
2017,05,22,12,13,1.60
2017,05,22,12,14,8.10
2017,05,22,12,15,6.40
2017,05,22,12,16,9.60
2017,05,22,12,17,14.50
2017,05,22,12,18,3.20
2017,05,22,12,19,6.40
2017,05,22,12,20,4.80
2017,05,22,12,21,6.40
2017,05,22,12,22,4.80
2017,05,22,12,23,9.60
2017,05,22,12,24,20.90
2017,05,22,12,25,19.30
2017,05,22,12,26,17.70
2017,05,22,12,27,9.60
2017,05,22,12,28,6.40
2017,05,22,12,29,14.50
2017,05,22,12,30,12.90
2017,05,22,12,31,12.90
2017,05,22,12,32,8.10
2017,05,22,12,33,4.80
2017,05,22,12,34,9.60
2017,05,22,12,35,29.00
2017,05,22,12,36,12.90
2017,05,22,12,37,11.30
2017,05,22,12,38,16.10
2017,05,22,12,39,24.20
2017,05,22,12,40,17.70
2017,05,22,12,41,20.90
2017,05,22,12,42,22.50
2017,05,22,12,43,29.00
2017,05,22,12,44,22.50
2017,05,22,12,45,35.40
2017,05,22,12,46,30.60
2017,05,22,12,47,25.70
2017,05,22,12,48,22.50
2017,05,22,12,49,27.40
2017,05,22,12,50,29.00
2017,05,22,12,51,17.70
2017,05,22,12,52,22.50
2017,05,22,12,53,33.80
2017,05,22,12,54,30.60
2017,05,22,12,55,22.50
2017,05,22,12,56,19.30
2017,05,22,12,57,12.90
2017,05,22,12,58,19.30
2017,05,22,12,59,14.50
2017,05,22,13,00,14.50
2017,05,22,13,01,25.70
2017,05,22,13,02,24.20
2017,05,22,13,03,14.50
2017,05,22,13,04,14.50
2017,05,22,13,05,17.70
2017,05,22,13,06,27.40
2017,05,22,13,07,14.50
2017,05,22,13,08,30.60
2017,05,22,13,09,25.70
2017,05,22,13,10,19.30
2017,05,22,13,11,24.20
2017,05,22,13,12,29.00
2017,05,22,13,13,29.00
2017,05,22,13,14,20.90
2017,05,22,13,15,20.90
2017,05,22,13,16,14.50
2017,05,22,13,17,19.30
2017,05,22,13,18,17.70
2017,05,22,13,19,20.90
2017,05,22,13,20,20.90
2017,05,22,13,21,24.20
2017,05,22,13,22,17.70
2017,05,22,13,23,29.00
2017,05,22,13,24,20.90
2017,05,22,13,25,17.70
2017,05,22,13,26,20.90
2017,05,22,13,27,20.90
2017,05,22,13,28,24.20
2017,05,22,13,29,30.60
2017,05,22,13,30,25.70
2017,05,22,13,31,25.70
2017,05,22,13,32,24.20
2017,05,22,13,33,19.30
2017,05,22,13,34,14.50
2017,05,22,13,35,14.50
2017,05,22,13,36,19.30
2017,05,22,13,37,14.50
2017,05,22,13,38,17.70
2017,05,22,13,39,19.30
2017,05,22,13,40,19.30
2017,05,22,13,41,11.30
2017,05,22,13,42,12.90
2017,05,22,13,43,8.10
2017,05,22,13,44,8.10
2017,05,22,13,45,11.30
2017,05,22,13,46,12.90
2017,05,22,13,47,8.10
2017,05,22,13,48,4.80
2017,05,22,13,49,3.20
2017,05,22,13,50,12.90
2017,05,22,13,51,16.10
2017,05,22,13,52,11.30
2017,05,22,13,53,9.60
2017,05,22,13,54,9.60
2017,05,22,13,55,6.40
2017,05,22,13,56,8.10
2017,05,22,13,57,6.40
2017,05,22,13,58,8.10
2017,05,22,13,59,8.10
2017,05,22,14,00,6.40
2017,05,22,14,01,12.90
2017,05,22,14,02,14.50
2017,05,22,14,03,9.60
2017,05,22,14,04,8.10
2017,05,22,14,05,9.60
2017,05,22,14,06,9.60
2017,05,22,14,07,6.40
2017,05,22,14,08,9.60
2017,05,22,14,09,8.10
2017,05,22,14,10,4.80
2017,05,22,14,11,8.10
2017,05,22,14,12,11.30
2017,05,22,14,13,6.40
2017,05,22,14,14,6.40
2017,05,22,14,15,3.20
2017,05,22,14,16,4.80
2017,05,22,14,17,3.20
2017,05,22,14,18,9.60
2017,05,22,14,19,14.50
2017,05,22,14,20,11.30
2017,05,22,14,21,22.50
2017,05,22,14,22,22.50
2017,05,22,14,23,19.30
2017,05,22,14,24,19.30
2017,05,22,14,25,17.70
2017,05,22,14,26,9.60
2017,05,22,14,27,22.50
2017,05,22,14,28,20.90
2017,05,22,14,29,25.70
2017,05,22,14,30,17.70
2017,05,22,14,31,12.90
2017,05,22,14,32,17.70
2017,05,22,14,33,12.90
2017,05,22,14,34,12.90
2017,05,22,14,35,17.70
2017,05,22,14,36,17.70
2017,05,22,14,37,11.30
2017,05,22,14,38,3.20
2017,05,22,14,39,4.80
2017,05,22,14,40,6.40
2017,05,22,14,41,6.40
2017,05,22,14,42,11.30
2017,05,22,14,43,8.10
2017,05,22,14,44,3.20
2017,05,22,14,45,6.40
2017,05,22,14,46,6.40
2017,05,22,14,47,8.10
2017,05,22,14,48,9.60
2017,05,22,14,49,14.50
2017,05,22,14,50,12.90
2017,05,22,14,51,3.20
2017,05,22,14,52,11.30
2017,05,22,14,53,11.30
2017,05,22,14,54,6.40
2017,05,22,14,55,9.60
2017,05,22,14,56,6.40
2017,05,22,14,57,8.10
2017,05,22,14,58,6.40
2017,05,22,14,59,11.30
2017,05,22,15,00,11.30
2017,05,22,15,01,8.10
2017,05,22,15,02,3.20
2017,05,22,15,03,6.40
2017,05,22,15,04,8.10
2017,05,22,15,05,8.10
2017,05,22,15,06,9.60
2017,05,22,15,07,8.10
2017,05,22,15,08,8.10
2017,05,22,15,09,9.60
2017,05,22,15,10,8.10
2017,05,22,15,11,11.30
2017,05,22,15,12,11.30
2017,05,22,15,13,6.40
2017,05,22,15,14,4.80
2017,05,22,15,15,4.80
2017,05,22,15,16,6.40
2017,05,22,15,17,1.60
2017,05,22,15,19,3.20
2017,05,22,15,20,3.20
2017,05,22,15,21,4.80
2017,05,22,15,22,6.40
2017,05,22,15,23,8.10
2017,05,22,15,24,8.10
2017,05,22,15,25,8.10
2017,05,22,15,26,8.10
2017,05,22,15,27,9.60
2017,05,22,15,28,6.40
2017,05,22,15,29,1.60
2017,05,22,15,30,3.20
2017,05,22,15,31,9.60
2017,05,22,15,32,12.90
2017,05,22,15,33,9.60
2017,05,22,15,34,6.40
2017,05,22,15,35,9.60
2017,05,22,15,36,9.60
2017,05,22,15,37,11.30
2017,05,22,15,38,11.30
2017,05,22,15,39,14.50
2017,05,22,15,40,9.60
2017,05,22,15,41,4.80
2017,05,22,15,42,6.40
2017,05,22,15,43,4.80
2017,05,22,15,44,8.10
2017,05,22,15,45,6.40
2017,05,22,15,46,9.60
2017,05,22,15,47,9.60
2017,05,22,15,48,6.40
2017,05,22,15,49,6.40
2017,05,22,15,50,1.60
2017,05,22,15,51,3.20
2017,05,22,15,52,1.60
2017,05,22,15,53,3.20
2017,05,22,15,54,3.20
2017,05,22,15,55,3.20
2017,05,22,15,56,1.60
2017,05,22,15,57,1.60
2017,05,22,15,58,1.60
2017,05,22,15,59,3.20
2017,05,22,16,00,6.40
2017,05,22,16,01,1.60
2017,05,22,16,02,1.60
2017,05,22,16,03,1.60
2017,05,22,16,04,9.60
2017,05,22,16,05,9.60
2017,05,22,16,06,8.10
2017,05,22,16,07,11.30
2017,05,22,16,08,9.60
2017,05,22,16,09,11.30
2017,05,22,16,10,11.30
2017,05,22,16,11,9.60
2017,05,22,16,12,9.60
2017,05,22,16,13,9.60
2017,05,22,16,14,8.10
2017,05,22,16,15,9.60
2017,05,22,16,16,9.60
2017,05,22,16,17,9.60
2017,05,22,16,18,11.30
2017,05,22,16,19,11.30
2017,05,22,16,20,9.60
2017,05,22,16,21,12.90
2017,05,22,16,22,14.50
2017,05,22,16,23,12.90
2017,05,22,16,24,14.50
2017,05,22,16,25,12.90
2017,05,22,16,26,12.90
2017,05,22,16,27,17.70
2017,05,22,16,28,14.50
2017,05,22,16,29,14.50
2017,05,22,16,30,12.90
2017,05,22,16,31,8.10
2017,05,22,16,32,16.10
2017,05,22,16,33,12.90
2017,05,22,16,34,3.20
2017,05,22,16,35,6.40
2017,05,22,16,36,8.10
2017,05,22,16,37,3.20
2017,05,22,16,38,3.20
2017,05,22,16,39,3.20
2017,05,22,16,40,4.80
2017,05,22,16,41,6.40
2017,05,22,16,42,9.60
2017,05,22,16,43,9.60
2017,05,22,16,44,9.60
2017,05,22,16,45,9.60
2017,05,22,16,46,9.60
2017,05,22,16,47,8.10
2017,05,22,16,48,8.10
2017,05,22,16,49,8.10
2017,05,22,16,50,8.10
2017,05,22,16,51,3.20
2017,05,22,16,52,1.60
2017,05,22,16,53,1.60
2017,05,22,16,54,1.60
2017,05,22,16,55,1.60
2017,05,22,16,57,1.60
2017,05,22,16,58,6.40
2017,05,22,16,59,6.40
2017,05,22,17,00,6.40
2017,05,22,17,01,6.40
2017,05,22,17,02,1.60
2017,05,22,17,03,1.60
2017,05,22,17,04,3.20
2017,05,22,17,05,6.40
2017,05,22,17,06,4.80
2017,05,22,17,07,1.60
2017,05,22,17,08,1.60
2017,05,22,17,09,3.20
2017,05,22,17,10,1.60
2017,05,22,17,11,1.60
2017,05,22,17,12,3.20
2017,05,22,17,13,3.20
2017,05,22,17,14,1.60
2017,05,22,17,15,1.60
2017,05,22,17,16,1.60
2017,05,22,17,17,1.60
2017,05,22,17,18,1.60
2017,05,22,17,19,3.20
2017,05,22,17,20,1.60
2017,05,22,17,21,1.60
2017,05,22,17,22,1.60
2017,05,22,17,23,1.60
2017,05,22,17,25,3.20
2017,05,22,17,26,11.30
2017,05,22,17,27,11.30
2017,05,22,17,29,1.60
2017,05,22,17,30,1.60
2017,05,22,17,32,4.80
2017,05,22,17,33,4.80
2017,05,22,17,34,3.20
2017,05,22,17,35,4.80
2017,05,22,17,36,9.60
2017,05,22,17,37,8.10
2017,05,22,17,38,1.60
2017,05,22,17,39,3.20
2017,05,22,17,40,1.60
2017,05,22,17,41,3.20
2017,05,22,17,42,4.80
2017,05,22,17,43,3.20
2017,05,22,17,44,3.20
2017,05,22,17,45,6.40
2017,05,22,17,46,6.40
2017,05,22,17,47,4.80
2017,05,22,17,48,4.80
2017,05,22,17,49,6.40
2017,05,22,17,50,3.20
2017,05,22,17,51,1.60
2017,05,22,17,52,1.60
2017,05,22,17,53,1.60
2017,05,22,17,54,1.60
2017,05,22,17,55,1.60
2017,05,22,17,56,3.20
2017,05,22,17,59,1.60
2017,05,22,18,01,1.60
2017,05,22,18,02,1.60
2017,05,22,18,03,3.20
2017,05,22,18,04,1.60
2017,05,22,18,05,1.60
2017,05,22,18,06,1.60
2017,05,22,18,07,1.60
2017,05,22,18,08,1.60
2017,05,22,18,10,1.60
2017,05,22,18,11,1.60
2017,05,22,18,13,1.60
2017,05,22,18,14,3.20
2017,05,22,18,15,3.20
2017,05,22,18,16,3.20
2017,05,22,18,17,6.40
2017,05,22,18,18,4.80
2017,05,22,18,19,4.80
2017,05,22,18,20,4.80
2017,05,22,18,23,1.60
2017,05,22,18,24,3.20
2017,05,22,18,25,3.20
2017,05,22,18,28,1.60
2017,05,22,18,29,1.60
2017,05,22,18,30,1.60
2017,05,22,18,31,1.60
2017,05,22,18,32,1.60
2017,05,22,18,33,3.20
2017,05,22,18,34,4.80
2017,05,22,18,35,6.40
2017,05,22,18,36,3.20
2017,05,22,18,37,6.40
2017,05,22,18,38,3.20
2017,05,22,18,39,6.40
2017,05,22,18,40,3.20
2017,05,22,18,41,3.20
2017,05,22,18,42,3.20
2017,05,22,18,43,3.20
2017,05,22,18,44,3.20
2017,05,22,18,45,3.20
2017,05,22,18,46,3.20
2017,05,22,18,47,3.20
2017,05,22,18,48,6.40
2017,05,22,18,49,3.20
2017,05,22,18,50,3.20
2017,05,22,18,51,3.20
2017,05,22,18,52,1.60
2017,05,22,18,53,1.60
2017,05,22,18,54,1.60
2017,05,22,19,11,3.20
2017,05,22,19,12,6.40
2017,05,22,19,13,3.20
2017,05,22,19,14,1.60
2017,05,22,19,15,1.60
2017,05,22,19,16,1.60
2017,05,22,19,17,1.60
2017,05,22,19,25,3.20
2017,05,22,19,26,1.60
2017,05,22,19,27,1.60
2017,05,22,19,28,3.20
2017,05,22,19,29,3.20
2017,05,22,19,30,3.20
2017,05,22,19,31,1.60
2017,05,22,19,32,3.20
2017,05,22,19,33,3.20
2017,05,22,19,34,3.20
2017,05,22,19,35,3.20
2017,05,22,19,36,3.20
2017,05,22,19,37,3.20
2017,05,22,19,38,3.20
2017,05,22,19,39,3.20
2017,05,22,19,40,3.20
2017,05,22,19,41,1.60
2017,05,22,19,42,1.60
2017,05,22,19,56,3.20
2017,05,22,19,57,1.60
2017,05,22,20,02,1.60
2017,05,22,20,03,3.20
2017,05,22,20,04,1.60
2017,05,22,20,05,1.60
2017,05,22,20,13,1.60
2017,05,22,20,14,1.60
2017,05,22,20,17,1.60
2017,05,22,20,18,1.60
2017,05,22,20,20,1.60
2017,05,22,20,21,1.60
2017,05,22,20,32,1.60
2017,05,22,20,33,1.60
2017,05,22,20,34,1.60
2017,05,22,20,35,3.20
2017,05,22,20,36,1.60
2017,05,22,20,49,1.60
2017,05,22,20,50,1.60
2017,05,22,20,54,1.60
2017,05,22,20,55,3.20
2017,05,22,20,56,1.60
2017,05,22,20,58,1.60
2017,05,22,21,01,1.60
2017,05,22,21,02,1.60
2017,05,22,21,10,1.60
2017,05,22,21,27,1.60
2017,05,22,21,28,1.60
2017,05,22,21,29,1.60
2017,05,22,21,46,3.20
2017,05,22,21,47,1.60
2017,05,22,21,57,1.60
2017,05,22,22,00,4.80
2017,05,22,22,01,3.20
2017,05,22,22,12,1.60
2017,05,22,22,13,1.60
2017,05,22,22,14,1.60
2017,05,22,22,15,1.60
2017,05,22,22,16,1.60
2017,05,22,22,17,3.20
2017,05,22,22,18,3.20
2017,05,22,22,19,3.20
2017,05,22,22,20,3.20
2017,05,22,22,21,3.20
2017,05,22,22,22,3.20
2017,05,22,22,23,3.20
2017,05,22,22,24,3.20
2017,05,22,22,37,1.60
2017,05,22,22,38,1.60
2017,05,22,22,39,1.60
2017,05,22,22,40,3.20
2017,05,22,22,41,1.60
2017,05,22,22,42,1.60
2017,05,22,22,43,1.60
2017,05,22,22,45,1.60
2017,05,22,22,46,1.60
2017,05,22,22,47,1.60
2017,05,22,22,51,1.60
2017,05,22,22,52,1.60
2017,05,22,22,55,1.60
2017,05,22,22,56,1.60
2017,05,22,22,57,1.60
2017,05,22,22,58,1.60
2017,05,22,23,00,3.20
2017,05,22,23,15,1.60
2017,05,22,23,16,3.20
2017,05,22,23,17,3.20
2017,05,22,23,18,3.20
2017,05,22,23,19,1.60
2017,05,22,23,22,1.60
2017,05,22,23,23,1.60
2017,05,22,23,25,1.60
2017,05,22,23,26,1.60
2017,05,22,23,27,3.20
2017,05,22,23,28,3.20
2017,05,22,23,29,3.20
2017,05,22,23,30,3.20
2017,05,22,23,31,3.20
2017,05,22,23,32,3.20
2017,05,22,23,33,3.20
2017,05,22,23,34,3.20
2017,05,22,23,35,3.20
2017,05,22,23,36,1.60
2017,05,22,23,37,3.20
2017,05,22,23,38,3.20
2017,05,22,23,39,3.20
2017,05,22,23,40,1.60
2017,05,22,23,41,3.20
2017,05,22,23,42,1.60
2017,05,22,23,43,1.60
2017,05,22,23,44,1.60
2017,05,22,23,45,1.60
2017,05,22,23,47,1.60
2017,05,22,23,54,1.60
2017,05,22,23,56,1.60
2017,05,22,23,57,3.20
2017,05,22,23,59,1.60
